TimeCDT,TemperatureF,Dew PointF,Humidity,Sea Level PressureIn,VisibilityMPH,Wind Direction,Wind SpeedMPH,Gust SpeedMPH,PrecipitationIn,Events,Conditions,WindDirDegrees,DateUTC
12:52 AM,57.0,52.0,83,30.14,8.0,NW,5.8,-,N/A,,Clear,320,2013-07-01 05:52:00
1:52 AM,57.0,52.0,83,30.14,8.0,NW,5.8,-,N/A,,Clear,320,2013-07-01 06:52:00
2:52 AM,57.0,52.0,83,30.14,8.0,NW,5.8,-,N/A,,Clear,320,2013-07-01 07:52:00
3:52 AM,57.0,52.0,83,30.15,8.0,NW,5.8,-,N/A,,Clear,320,2013-07-01 08:52:00
4:52 AM,55.9,52.0,87,30.16,8.0,NW,6.9,-,N/A,,Clear,320,2013-07-01 09:52:00
5:52 AM,55.9,51.1,84,30.17,7.0,NW,5.8,-,N/A,,Clear,320,2013-07-01 10:52:00
6:52 AM,59.0,53.1,81,30.17,7.0,NW,6.9,-,N/A,,Clear,320,2013-07-01 11:52:00
7:52 AM,66.0,55.9,70,30.18,8.0,NNW,9.2,-,N/A,,Unknown,330,2013-07-01 12:52:00
8:52 AM,71.1,54.0,55,30.19,10.0,North,11.5,-,N/A,,Clear,360,2013-07-01 13:52:00
9:52 AM,75.0,55.0,50,30.18,10.0,NNE,9.2,-,N/A,,Clear,20,2013-07-01 14:52:00
10:52 AM,78.1,48.9,36,30.18,10.0,NE,10.4,-,N/A,,Clear,40,2013-07-01 15:52:00
11:52 AM,80.1,48.9,34,30.19,10.0,NE,11.5,19.6,N/A,,Clear,50,2013-07-01 16:52:00
12:52 PM,82.0,51.1,34,30.18,8.0,NE,12.7,18.4,N/A,,Clear,40,2013-07-01 17:52:00
1:52 PM,82.0,51.1,34,30.17,8.0,NE,13.8,21.9,N/A,,Partly Cloudy,40,2013-07-01 18:52:00
2:52 PM,82.9,50.0,32,30.17,8.0,NE,16.1,20.7,N/A,,Partly Cloudy,40,2013-07-01 19:52:00
3:52 PM,81.0,48.9,33,30.15,8.0,NE,13.8,20.7,N/A,,Partly Cloudy,50,2013-07-01 20:52:00
4:52 PM,81.0,50.0,34,30.14,8.0,ENE,9.2,-,N/A,,Clear,60,2013-07-01 21:52:00
5:52 PM,82.0,48.9,31,30.14,8.0,NNE,11.5,-,N/A,,Clear,20,2013-07-01 22:52:00
6:52 PM,80.1,51.1,36,30.14,8.0,NE,9.2,-,N/A,,Partly Cloudy,50,2013-07-01 23:52:00
7:52 PM,79.0,51.1,38,30.13,8.0,NE,8.1,-,N/A,,Clear,50,2013-07-02 00:52:00
8:52 PM,75.0,54.0,48,30.13,7.0,ENE,4.6,-,N/A,,Scattered Clouds,60,2013-07-02 01:52:00
9:52 PM,71.1,53.1,53,30.13,7.0,NE,6.9,-,N/A,,Mostly Cloudy,40,2013-07-02 02:52:00
10:52 PM,70.0,54.0,57,30.14,9.0,NNE,6.9,-,N/A,,Overcast,30,2013-07-02 03:52:00
11:52 PM,68.0,55.0,63,30.14,8.0,ENE,5.8,-,N/A,,Mostly Cloudy,60,2013-07-02 04:52:00